Regional Weather Roundup
Issued by NWS

Home | Current Version | Previous Version | Graphics & Text | Print | Product List | Glossary On
Versions: 1 2 3 4 5 6 7 8 9 10 11 12 13 14 15 16 17 18 19 20 21 22 23 24 25 26 27 28 29 30 31 32 33 34 35 36 37 38 39 40 41 42 43 44 45 46 47 48 49 50
000
ASUS43 KLSX 212257
RWRMO

WEATHER SUMMARY FOR MISSOURI
NATIONAL WEATHER SERVICE SPRINGFIELD MO
600 PM CDT SAT APR 21 2018

NOTE: "FAIR" INDICATES FEW OR NO CLOUDS BELOW 12,000 FEET WITH NO
       SIGNIFICANT WEATHER AND/OR OBSTRUCTIONS TO VISIBILITY.
       CURRENT SKY AND/OR WEATHER CONDITIONS ARE NOT AVAILABLE FOR
       CHILLICOTHE AND FARMINGTON.

MOZ001>031-035>038-043-044-053-054-220000-
...NORTHERN AND WESTERN MISSOURI...

CITY           SKY/WX    TMP DP  RH WIND       PRES   REMARKS
KANSAS CTY INT CLOUDY    64  30  27 E17       30.12R
LEE`S SUMMIT   CLOUDY    64  32  30 E12G24    30.11S
ST JOSEPH      CLOUDY    63  33  32 E17G28    30.14R
CHILLICOTHE      N/A     60  28  29 E8        30.19S

$$
MOZ066>068-077>081-088>096-101>105-220000-
...SOUTHWEST MISSOURI...

CITY           SKY/WX    TMP DP  RH WIND       PRES   REMARKS
SPRINGFIELD    PTSUNNY   64  39  39 SE10      30.06F
BRANSON        CLOUDY    64  41  42 E12G18    30.07F

$$
MOZ032>034-039>042-045>050-055>058-069>072-220000-
...CENTRAL MISSOURI...

CITY           SKY/WX    TMP DP  RH WIND       PRES   REMARKS
COLUMBIA       NOT AVBL
JEFFERSON CITY CLOUDY    66  27  23 E14       30.14S
SEDALIA        CLOUDY    66  31  27 E12       30.15S
WARRENSBURG    CLOUDY    64  30  27 E17       30.11F

$$
MOZ051-052-059>065-220000-
...EAST CENTRAL MISSOURI...

CITY           SKY/WX    TMP DP  RH WIND       PRES   REMARKS
ST LOUIS INTL  CLOUDY    65  32  29 E14       30.20S

$$
MOZ072>076-082>087-097>100-106>115-220000-
...SOUTH CENTRAL AND SOUTHEAST MISSOURI...

CITY           SKY/WX    TMP DP  RH WIND       PRES   REMARKS
CAPE GIRARDEAU FAIR      68  43  40 SE5       30.16R
POPLAR BLUFF   FAIR      69  41  36 CALM      30.16R
WEST PLAINS    CLOUDY    67  34  29 VRB7      30.12F

$$




USA.gov is the U.S. government's official web portal to all federal, state and local government web resources and services.